Location: Beneden-Haastrecht
(52.0012°N, 4.7557°E)
Time: 14:48:45
(UTC+00:00)

GEOS 3 Rocket - Pass Details

Date: 24 October 2020
Orbit: 770 x 850 km, 115.0° (Epoch: 28 November)

Event Time Altitude Azimuth Distance (km) Brightness Sun altitude
Rises 16:55:55 0° 113° (ESE) 3,368 6.3 -5.1°
Reaches altitude 10° 16:58:16 10° 108° (ESE) 2,447 5.6 -5.4°
Maximum altitude 17:03:24 50° 35° (NE) 1,072 4.0 -6.2°
Drops below altitude 10° 17:08:36 10° 321° (NW) 2,484 6.5 -7.0°
Sets 17:11:00 0° 317° (NW) 3,424 7.4 -7.4°
